User: anonymous   Login
Location: Mentone
(34.5413°N, 85.5351°W)
Time: 20:37:52
(UTC-06:00)
Language:

ERBS - Orbit

View from above orbital plane
View from above orbital plane
View from above satellite
View from above satellite

Ground track
Ground track

The orbit data is extracted from the following two-line orbital elements,

1 15354U 84108B   15028.81186559  .00007015  00000-0  22860-3 0  6900
2 15354 057.0114 261.9846 0009712 251.2381 108.7615 15.32915710664160
Epoch (UTC): 28 January 2015 19:29:05
Eccentricity: 0.0009712
inclination: 57.0114°
perigee height: 460 km
apogee height: 474 km
right ascension of ascending node: 261.9846°
argument of perigee: 251.2381°
revolutions per day: 15.32915710
mean anomaly at epoch: 108.7615°
orbit number at epoch: 66416

The dashed part of the orbit path shows where the satellite is in the earth's shadow,  

DLR